Weather History for LIVP - July, 2013

Change the Weather History Date:

Tuesday, July 16, 2013

  Actual Average Record
Temperature  
Mean Temperature 57 °F -  
Max Temperature 65 °F 56 °F 69 °F (2010)
Min Temperature 49 °F 43 °F 32 °F (2000)
Degree Days  
Heating Degree Days 8    
Growing Degree Days 7 (Base 50)    
Moisture  
Dew Point 48 °F    
Average Humidity 74    
Maximum Humidity 100    
Minimum Humidity 49    
Precipitation  
Precipitation 0.00 in 0.12 in - ()
Sea Level Pressure  
Sea Level Pressure 30.36 in    
Wind  
Wind Speed 7 mph ()    
Max Wind Speed 20 mph    
Max Gust Speed -    
Visibility 7.4 miles    
Events Fog    
Averages and records for this station are not official NWS values.
T = Trace of Precipitation, MM = Missing Value Source: Averaged Metar Reports

Daily Weather History Graph

Daily Weather History Graph

Search for Another Location

Airport or City:

Trip Planner

Search our weather history database for the weather conditions in past years. The results will help you decide how hot, cold, wet, or windy it might be!

Date:

Astronomy

Jul. 16, 2013 Rise Set
Actual Time 5:40 AM CEST 9:03 PM CEST
Civil Twilight 5:03 AM CEST 9:39 PM CEST
Nautical Twilight 4:14 AM CEST 10:28 PM CEST
Astronomical Twilight 3:12 AM CEST 11:29 PM CEST
Moon 2:16 PM CEST (7/16) 12:11 AM CEST (7/16)
Length of Visible Light 16h 36m
Length of Day
15h 22m
First Quarter, 53% of the Moon is Illuminated
Jul 16
First Quarter
Jul 22
Full
Jul 29
Last Quarter
Aug 6
New
Aug 14
First Quarter

Hourly Weather History & Observations

Time (CEST) Temp. Dew Point Humidity Pressure Visibility Wind Dir Wind Speed Gust Speed Precip Events Conditions
12:00 AM 54 °F 48 °F 75%  in 12 mi North 4.6 mph - -  
12:00 AM - - N/A% - - North - - N/A   Unknown
12:55 AM 53.6 °F 50.0 °F 88% 30.33 in - North 6.9 mph - N/A   Clear
1:00 AM 54 °F 49 °F 79%  in 12 mi North 6.9 mph - -  
1:55 AM 51.8 °F 51.8 °F 100% 30.36 in - North 5.8 mph - N/A   Clear
2:00 AM 52 °F 51 °F 96%  in 6 mi North 11.2 mph - -  
2:55 AM 50.0 °F 41.0 °F 71% 30.33 in - North 6.9 mph - N/A   Clear
3:55 AM 50.0 °F 41.0 °F 71% 30.36 in - North 6.9 mph - N/A   Clear
4:00 AM 50 °F 41 °F 61%  in 12 mi North 13.4 mph - -  
5:00 AM 50 °F 39 °F 56%  in 12 mi North 13.4 mph - -  
5:55 AM 50.0 °F 39.2 °F 66% 30.36 in - North 5.8 mph - N/A   Clear
6:00 AM 50 °F 39 °F 56%  in 12 mi North 5.8 mph - -  
6:55 AM 51.8 °F 41.0 °F 67% 30.36 in - Calm Calm - N/A   Clear
7:00 AM 51 °F 41 °F 59%  in 12 mi Calm Calm - -  
7:55 AM 51.8 °F 41.0 °F 67% 30.36 in 6.2 mi North 4.6 mph - N/A   Partly Cloudy
8:00 AM 52 °F 41 °F 57%  in 12 mi North 4.6 mph - -   Scattered Clouds
8:55 AM 55.4 °F 41.0 °F 58% 30.36 in 6.2 mi North 5.8 mph - N/A   Partly Cloudy
9:00 AM 55 °F 41 °F 49%  in 12 mi North 5.8 mph - -   Scattered Clouds
9:55 AM 55.4 °F 44.6 °F 67% 30.36 in 6.2 mi North 4.6 mph - N/A   Partly Cloudy
10:00 AM 55 °F 44 °F 57%  in 9 mi North 4.6 mph - -   Scattered Clouds
10:55 AM 55.4 °F 44.6 °F 67% 30.36 in 6.2 mi Variable 3.5 mph - N/A   Scattered Clouds
11:00 AM 55 °F 46 °F 62%  in 12 mi 3.5 mph - -   Partly Cloudy
11:55 AM 57.2 °F 50.0 °F 77% 30.36 in 6.2 mi SW 5.8 mph - N/A   Scattered Clouds
12:00 PM 56 °F 50 °F 75%  in 9 mi SW 11.2 mph - -   Partly Cloudy
12:55 PM 59.0 °F 51.8 °F 77% 30.39 in 6.2 mi SW 6.9 mph - N/A   Scattered Clouds
1:00 PM 59 °F 51 °F 69%  in 9 mi SW 6.9 mph - -   Partly Cloudy
1:55 PM 59.0 °F 53.6 °F 82% 30.36 in 6.2 mi SW 6.9 mph - N/A   Scattered Clouds
2:00 PM 59 °F 53 °F 74%  in 6 mi SW 13.4 mph - -   Mostly Cloudy
2:55 PM 60.8 °F 55.4 °F 82% 30.36 in 6.2 mi SW 9.2 mph - N/A   Scattered Clouds
3:00 PM 61 °F 55 °F 74%  in 9 mi SW 9.2 mph - -   Partly Cloudy
3:55 PM 62.6 °F 55.4 °F 77% 30.36 in 6.2 mi SW 8.1 mph - N/A   Scattered Clouds
4:00 PM - - N/A% - - North - - N/A   Unknown
4:55 PM 64.4 °F 53.6 °F 68% 30.36 in 6.2 mi SW 6.9 mph - N/A   Partly Cloudy
5:00 PM 64 °F 54 °F 63%  in 12 mi SW 13.4 mph - -   Scattered Clouds
5:55 PM 62.6 °F 55.4 °F 77% 30.36 in 6.2 mi SW 8.1 mph - N/A   Partly Cloudy
6:55 PM 60.8 °F 53.6 °F 77% 30.36 in 6.2 mi SW 8.1 mph - N/A   Partly Cloudy
7:00 PM 61 °F 53 °F 68%  in 9 mi SW 8.1 mph - -   Scattered Clouds
7:55 PM 59.0 °F 51.8 °F 77% 30.36 in 6.2 mi SW 11.5 mph - N/A   Partly Cloudy
8:00 PM 60 °F 52 °F 67%  in 9 mi SW 11.5 mph - -   Scattered Clouds
8:00 PM - - N/A% - - North - - N/A   Unknown
8:55 PM 57.2 °F 51.8 °F 82% 30.36 in 4.3 mi WSW 10.4 mph - N/A   Partly Cloudy
9:00 PM 57 °F 52 °F 77%  in 4 mi WSW 20.1 mph - -   Mist
9:00 PM - - N/A% - - North - - N/A   Unknown
9:55 PM 55.4 °F 53.6 °F 94% 30.36 in 0.2 mi SW 9.2 mph - N/A Fog Fog
10:55 PM 53.6 °F 53.6 °F 100% 30.39 in 0.0 mi SW 9.2 mph - N/A Fog Fog
11:00 PM 54 °F 54 °F 100%  in 0 mi SW 17.9 mph - - Fog Heavy Fog
11:55 PM 53.6 °F 53.6 °F 100% 30.39 in 0.0 mi SW 6.9 mph - N/A Fog Fog